Memphis, TN

6:13 PM CDT on September 25, 2017 (GMT -0500)
Memphis International

Weather History for KMEM - January, 2014

Change the Weather History Date:

Monday, January 13, 2014

  Actual Average Record
Temperature  
Mean Temperature 51 °F 41 °F  
Max Temperature 59 °F 49 °F 75 °F (1960)
Min Temperature 43 °F 32 °F 1 °F (1912)
Degree Days  
Heating Degree Days 14 24  
Month to date heating degree days 360 312  
Since 1 July heating degree days 1630 1476  
Cooling Degree Days 0 0  
Month to date cooling degree days 0 0  
Year to date cooling degree days 0 0  
Growing Degree Days 1 (Base 50)    
Moisture  
Dew Point 47 °F    
Average Humidity 67    
Maximum Humidity 93    
Minimum Humidity 40    
Precipitation  
Precipitation 0.49 in 0.12 in 2.94 in (2013)
Month to date precipitation 3.16 1.71  
Year to date precipitation 3.16 1.71  
Snow  
Snow 0.00 in 0.10 in 2.00 in (1968)
Month to date snowfall T 0.8  
Since 1 July snowfall T 1.0  
Snow Depth 0.00 in    
Sea Level Pressure  
Sea Level Pressure 29.85 in    
Wind  
Wind Speed 11 mph (SW)    
Max Wind Speed 26 mph    
Max Gust Speed 32 mph    
Visibility 8 miles    
Events Fog , Rain    
T = Trace of Precipitation, MM = Missing Value Source: NWS Daily Summary

Daily Weather History Graph

Daily Weather History Graph

Search for Another Location

Airport or City:

Trip Planner

Search our weather history database for the weather conditions in past years. The results will help you decide how hot, cold, wet, or windy it might be!

Date:

Astronomy

Jan. 13, 2014 Rise Set
Actual Time 7:07 AM CST 5:09 PM CST
Civil Twilight 6:40 AM CST 5:37 PM CST
Nautical Twilight 6:09 AM CST 6:08 PM CST
Astronomical Twilight 5:38 AM CST 6:38 PM CST
Moon 3:24 PM CST (1/13) 4:57 AM CST (1/13)
Length of Visible Light 10h 56m
Length of Day
10h 01m
Waxing Gibbous, 95% of the Moon is Illuminated
Jan 13
Waxing Gibbous
Jan 15
Full
Jan 23
Last Quarter
Jan 30
New
Feb 6
First Quarter

Hourly Weather History & Observations

Time (CST) Temp. Windchill Dew Point Humidity Pressure Visibility Wind Dir Wind Speed Gust Speed Precip Events Conditions
12:54 AM 55.0 °F - 37.9 °F 53% 29.88 in 10.0 mi SSW 18.4 mph 32.2 mph 0.01 in   Overcast
1:54 AM 53.1 °F - 41.0 °F 64% 29.91 in 10.0 mi SSW 18.4 mph 28.8 mph 0.00 in Rain Light Rain
2:54 AM 50.0 °F - 44.1 °F 80% 29.88 in 10.0 mi South 19.6 mph - 0.03 in Rain Light Rain
3:54 AM 51.1 °F - 43.0 °F 74% 29.84 in 10.0 mi South 20.7 mph - 0.01 in Rain Light Rain
4:54 AM 52.0 °F - 43.0 °F 71% 29.85 in 10.0 mi South 20.7 mph 26.5 mph 0.00 in Rain Light Rain
5:54 AM 51.1 °F - 45.0 °F 80% 29.89 in 10.0 mi SSW 10.4 mph - 0.02 in Rain Light Rain
6:24 AM 51.8 °F - 46.4 °F 82% 29.87 in 10.0 mi South 15.0 mph 23.0 mph 0.00 in   Overcast
6:54 AM 52.0 °F - 46.9 °F 83% 29.88 in 10.0 mi SSW 11.5 mph - 0.00 in Rain Light Rain
7:19 AM 51.8 °F - 48.2 °F 88% 29.88 in 9.0 mi SSW 12.7 mph 19.6 mph 0.02 in Rain Light Rain
7:54 AM 52.0 °F - 48.9 °F 89% 29.86 in 5.0 mi South 13.8 mph - 0.13 in Rain Rain
8:21 AM 51.8 °F - 48.2 °F 88% 29.85 in 10.0 mi South 15.0 mph - 0.08 in Rain Light Rain
8:38 AM 51.8 °F - 50.0 °F 94% 29.85 in 10.0 mi South 12.7 mph - 0.09 in Rain Light Rain
8:46 AM 51.8 °F - 50.0 °F 94% 29.85 in 10.0 mi SSW 10.4 mph - 0.09 in Rain Light Rain
8:54 AM 53.1 °F - 50.0 °F 89% 29.84 in 10.0 mi South 12.7 mph 18.4 mph 0.09 in Rain Light Rain
9:42 AM 53.6 °F - 51.8 °F 94% 29.84 in 10.0 mi SSW 15.0 mph - 0.01 in   Overcast
9:54 AM 54.0 °F - 51.1 °F 90% 29.84 in 10.0 mi SSW 11.5 mph - 0.01 in   Overcast
10:22 AM 53.6 °F - 51.8 °F 94% 29.85 in 2.0 mi SW 10.4 mph - 0.00 in Rain Light Rain
10:49 AM 53.6 °F - 51.8 °F 94% 29.84 in 2.0 mi SSW 10.4 mph - 0.05 in Rain Light Rain
10:54 AM 54.0 °F - 51.1 °F 90% 29.83 in 2.0 mi SSW 12.7 mph - 0.05 in Rain Light Rain
11:45 AM 53.6 °F - 51.8 °F 94% 29.81 in 6.0 mi SSW 11.5 mph 19.6 mph 0.05 in Rain Light Rain
11:54 AM 54.0 °F - 52.0 °F 93% 29.81 in 4.0 mi SSW 10.4 mph 18.4 mph 0.06 in Rain Light Rain
12:54 PM 54.0 °F - 51.1 °F 90% 29.77 in 6.0 mi SSW 10.4 mph - 0.04 in Rain Light Rain
1:30 PM 53.6 °F - 51.8 °F 94% 29.77 in 2.0 mi SW 8.1 mph - 0.01 in Rain Light Rain
1:54 PM 54.0 °F - 52.0 °F 93% 29.77 in 2.0 mi SW 10.4 mph - 0.03 in Rain Light Rain
2:04 PM 53.6 °F - 51.8 °F 94% 29.78 in 3.0 mi SW 6.9 mph - 0.00 in Rain Light Rain
2:54 PM 54.0 °F - 52.0 °F 93% 29.79 in 10.0 mi SW 8.1 mph - 0.01 in   Overcast
3:54 PM 55.0 °F - 52.0 °F 89% 29.79 in 10.0 mi WSW 5.8 mph - N/A   Overcast
4:54 PM 54.0 °F - 52.0 °F 93% 29.80 in 10.0 mi West 5.8 mph - N/A   Mostly Cloudy
5:36 PM 51.8 °F - 51.8 °F 100% 29.82 in 10.0 mi Calm Calm - N/A   Mostly Cloudy
5:54 PM 53.1 °F - 51.1 °F 93% 29.83 in 8.0 mi Variable 3.5 mph - N/A   Scattered Clouds
6:25 PM 50.0 °F - 48.2 °F 94% 29.85 in 1.2 mi Calm Calm - N/A   Mostly Cloudy
6:33 PM 50.0 °F - 48.2 °F 94% 29.85 in 0.5 mi WSW 3.5 mph - N/A Fog Fog
6:42 PM 50.0 °F - 48.2 °F 94% 29.86 in 0.8 mi Calm Calm - N/A   Mist
6:46 PM 51.8 °F - 48.2 °F 88% 29.86 in 3.0 mi West 3.5 mph - N/A   Scattered Clouds
6:54 PM 50.0 °F - 48.0 °F 93% 29.86 in 5.0 mi WNW 3.5 mph - N/A   Scattered Clouds
7:54 PM 46.9 °F - 39.9 °F 77% 29.88 in 10.0 mi West 5.8 mph - N/A   Partly Cloudy
8:54 PM 48.0 °F - 37.9 °F 68% 29.91 in 10.0 mi WNW 8.1 mph - N/A   Partly Cloudy
9:54 PM 46.0 °F 43.9 °F 36.0 °F 68% 29.93 in 10.0 mi WNW 4.6 mph - N/A   Partly Cloudy
10:54 PM 45.0 °F 42.6 °F 34.0 °F 65% 29.95 in 10.0 mi NW 4.6 mph - N/A   Clear
11:54 PM 43.0 °F 39.5 °F 32.0 °F 65% 29.95 in 10.0 mi NW 5.8 mph - N/A   Clear